Showing default

ZHANGHENG 1-02, 64393

Orbit data source: Space-Track

ZHANGHENG 1-02, 64393 is a payload satellite owned by CAS (CN) in SSO that was launched on Sat, 14 Jun 2025 UTC via a CHANG ZHENG 2D launch vehicle from the Jiuquan Satellite Launch Center, China (JSC). Payload-class satellites include a variety of spacecraft equipped with specific instruments for various scientific and technological missions. These include communications satellites like Starlink; space stations such as the ISS; scientific satellites like the Hubble; Earth observation satellites from companies like Planet Labs, Umbra, and HawkEye 360; GPS; miniature CubeSats for education and research; and military/defense satellites.

Loading next visibility...
Identifier
64393, 2025-128A
Orbit
SSO
Country
Flag of CNCN / PRC
Related business
Manufacturer
DFH
Mission
Operational Civil Science
Bus & Motor
CAST-2000, AOCS
Mass
730 kg wet, ~700 kg dry
Launch date (UTC)
2025-06-14 (1 year ago)
Launch vehicle
CHANG ZHENG 2D
Launch site
Jiuquan Satellite Launch Center, China (JSC)
Object type
Payload
Rocket body
Debris
Shape & HBR
Box + 2 Pan, 14.5 m
Radar Cross Section
2.715 m², Large (>1 m²)

Expand to show TLE details & history
Last TLE update: 18 hours ago

TLE from 18 hours ago
0 ZHANGHENG 1-02
1 64393U 25128A   26171.14504207 -.00000553  00000-0 -21867-4 0  9996
2 64393  97.3600 297.8630 0014025 102.2155 258.0652 15.20932053 56374
Epoch: 2026-06-20T03:28Z
TLE epoch observation values (Epoch: 2026-06-20T03:28:51.634Z)
Latitude
-0.00009°
Longitude
-22.716°
Altitude
508.13 km
Speed
7.609 km/s
True Right ascension
19h 51m 27s
True Declination
0° 00' 00"
Sunlit
Object was in full shadow at epoch
Visualization orbit readout
Latitude
Unknown
Longitude
Unknown
Altitude
Unknown
Speed
Unknown
Apparent Right ascension
Unknown
Apparent Declination
Unknown
Sunlit
N/A
Visualization observer readout
Local Sidereal Time
08:42:10
Azimuth
Unknown
Elevation
Unknown
Doppler factor
Unknown
Orbital elements
Apogee altitude
509.637 km
Perigee altitude
490.344 km
Semi-major axis
6,878.128 km
Eccentricity
0.0014
Inclination
97.36°
RAAN
297.863°
Arg. of periapsis
102.2155°
True anomaly
257.90802°
Mean anomaly
258.0652°
Eccentric anomaly
257.9866°
Mean motion
3.80485 °/min
Orbital period
94.62 mins
BSTAR
-0.000021867
Loading maneuver chart data...
Computing Atmospheric mass density...
Loading historical data...
Loading historical data...
Loading historical data...
Loading historical data...
Loading historical data...
Loading historical data...
Loading historical data...
Other satellites on launch #128 in the year 2025 (2025-06-14 UTC)

Documentation

Showing up to 5 results
|